Location: ???????
(55.6447°N, 37.9356°E)
Time: 22:55:08
(UTC+00:00)

Daily predictions for brighter satellites

Satellite Brightness Start Highest point End
(mag) Time Altitude Azimuth Time Altitude Azimuth Time Altitude Azimuth
Meteor 2-15 Rocket 4.4 16:43:46 10° S 16:49:47 68° E 16:55:50 10° NNE
Cosmos 1606 Rocket 4.4 16:46:42 10° SSE 16:50:36 31° E 16:54:33 10° NNE
STARLINK-1269 3.8 16:49:01 10° WSW 16:53:07 60° S 16:57:12 10° E
ATLAS CENTAUR R/B 3.2 16:50:30 10° NW 16:53:55 23° N 16:57:09 10° ENE
Cosmos 1943 3.7 16:49:10 10° S 16:54:19 37° ESE 16:59:32 10° NE
Cosmos 1908 4.3 16:51:59 10° SE 16:55:10 25° E 16:58:22 10° NNE
CZ-4C R/B 3.5 16:51:35 10° WNW 16:57:22 43° N 17:04:16 10° ENE
Meteor 2-15 4.5 16:51:49 10° S 16:57:53 89° E 17:03:59 10° NNE
SL-08 RB Rocket 3.7 16:53:19 10° SSE 16:57:53 74° ENE 17:02:31 10° NNW
STARLINK-1200 3.8 16:53:59 10° WSW 16:58:04 61° S 17:02:10 10° E
Cosmos 1470 3.1 16:55:03 10° SSW 16:58:57 71° WNW 17:02:53 10° N
CZ-2C R/B 3.0 16:54:44 10° SSE 16:59:36 79° WSW 17:04:23 10° NNW
ERBS 2.5 16:57:32 10° W 17:00:55 69° N 17:04:17 10° E
Cosmos 1461 3.2 16:57:51 10° NW 17:02:19 73° NE 17:06:55 10° SE
STARLINK-1192 3.8 16:58:56 10° WSW 17:03:02 61° S 17:07:08 10° E
NOSS 3-4 (A) 3.9 16:56:30 10° NW 17:03:17 85° SW 17:10:49 10° SE
NOSS 3-4 (C) 3.9 16:56:37 10° NW 17:03:23 85° SW 17:10:55 10° SE
ADEOS Rocket 3.8 16:57:58 10° NNE 17:04:36 62° WNW 17:10:31 10° SW
Cosmos 1697 Rocket 4.3 17:01:49 10° NNW 17:06:19 23° NNE 17:10:48 10° ENE
STARLINK-1244 3.8 17:03:55 10° WSW 17:08:01 61° S 17:12:03 10° E
H-2A R/B 2.6 17:04:44 10° S 17:09:54 62° WSW 17:14:56 10° NNW
Cosmos 1656 Rocket 3.9 17:05:25 10° NW 17:11:06 74° WSW 17:16:42 10° SSE
STARLINK-1138 3.8 17:08:51 10° W 17:12:58 61° S 17:16:49 11° E
CZ-2C R/B 3.2 17:09:13 10° NNE 17:13:53 33° E 17:18:32 10° SSE
NOSS 3-3 (A) 4.1 17:10:28 10° SSW 17:16:19 56° SE 17:22:58 10° NE
NOSS 3-3 (C) 4.1 17:10:35 10° SSW 17:16:25 56° SE 17:23:03 10° NE
SL-16 R/B 3.0 17:11:48 10° SW 17:17:23 57° NW 17:22:59 10° NNE
STARLINK-1143 3.8 17:13:48 10° W 17:17:54 61° S 17:21:35 13° ESE
SL-16 R/B 4.5 17:15:17 10° NW 17:18:59 17° N 17:22:42 10° NE
Cosmos 2184 Rocket 4.2 17:12:53 10° NNW 17:19:15 82° W 17:25:29 10° S
SPOT 5 4.3 17:18:20 10° E 17:21:10 18° NE 17:24:06 10° N
MetOp-A 4.2 17:17:28 10° SSE 17:22:50 89° ENE 17:28:15 10° NNW
STARLINK-1241 3.8 17:18:48 10° W 17:22:54 61° S 17:26:24 14° ESE
Resurs 1-3 3.6 17:19:37 10° SSE 17:24:00 82° ENE 17:28:26 10° NNW
Cosmos 2251 Rocket 3.6 17:18:57 10° SSW 17:24:20 86° ESE 17:29:46 10° NNE
ARGOS 3.8 17:19:31 10° S 17:24:50 58° W 17:30:10 10° NNW
STARLINK-1239 3.8 17:23:46 10° W 17:27:52 61° S 17:31:10 15° ESE
STARLINK-1228 3.6 17:25:11 10° W 17:27:55 37° SSW 17:29:43 18° SE
Cosmos 2322 Rocket 4.5 17:25:21 10° NW 17:29:02 17° N 17:32:42 10° NE
Cosmos 2058 4.3 17:26:15 10° N 17:29:36 23° ENE 17:31:52 15° ESE
Cosmos 1726 2.1 17:26:25 10° SSW 17:30:10 87° W 17:33:56 10° NNE
DMSP B5D2-2 4.3 17:26:46 10° NNE 17:31:52 50° E 17:36:56 10° S
Meteor 2-10 4.2 17:27:10 10° S 17:32:40 87° ESE 17:38:24 10° NNE
STARLINK-1240 3.8 17:28:45 10° W 17:32:51 60° S 17:35:58 17° ESE
SJ-6B 4.0 17:30:07 10° S 17:34:06 46° W 17:38:07 10° NNW
Cosmos 1980 Rocket 3.9 17:30:07 10° NNW 17:34:29 22° NNE 17:38:50 10° ENE
USA 234 4.1 17:29:53 10° ENE 17:35:06 25° SE 17:40:18 10° S
ATLAS 2AS CENTAUR R/B 3.3 17:28:00 10° NW 17:35:37 63° SW 17:42:32 10° SSE
STARLINK-1233 3.5 17:34:17 10° W 17:37:17 42° SSW 17:39:02 21° SE
STARLINK-1212 3.5 17:34:44 10° W 17:37:44 42° SSW 17:39:27 21° SE
STARLINK-1216 3.8 17:33:44 10° W 17:37:49 60° S 17:40:45 18° ESE
STARLINK-1105 3.5 17:35:11 10° W 17:38:11 42° SSW 17:39:54 21° SE
STARLINK-1206 3.5 17:35:41 10° W 17:38:40 42° SSW 17:40:19 21° SE
STARLINK-1247 3.5 17:36:08 10° W 17:39:07 42° SSW 17:40:46 22° SE
STARLINK-1227 3.5 17:36:32 10° W 17:39:31 42° SSW 17:41:12 22° SE
Cosmos 1603 3.6 17:34:14 10° SSW 17:39:52 83° ESE 17:45:31 10° NE
STARLINK-1218 3.5 17:37:02 10° W 17:40:01 41° SSW 17:41:38 22° SE
Terra 3.3 17:37:16 14° E 17:40:02 22° NE 17:43:39 10° N
STARLINK-1226 3.5 17:37:28 10° W 17:40:27 41° SSW 17:42:04 22° SE
STARLINK-1254 3.6 17:37:52 10° W 17:40:52 41° SSW 17:42:29 22° SE
MOS 1 Rocket 3.7 17:36:00 10° NNE 17:41:15 56° E 17:46:35 10° S
STARLINK-1215 3.5 17:38:22 10° W 17:41:21 41° SSW 17:42:56 22° SE
Cosmos 2154 Rocket 4.1 17:35:04 10° NNW 17:41:29 85° W 17:47:49 10° S
STARLINK-1231 3.5 17:38:50 10° W 17:41:48 41° SSW 17:43:22 22° SE
RESURS DK-1 4.0 17:38:22 10° NNW 17:41:51 25° NE 17:44:39 13° E
STARLINK-1232 3.6 17:39:43 10° W 17:42:42 41° SSW 17:44:13 23° SE
STARLINK-1237 3.8 17:38:41 10° W 17:42:46 59° S 17:45:31 20° ESE
USA 186 4.2 17:40:16 10° SSW 17:42:59 23° W 17:45:38 10° NW
STARLINK-1217 3.6 17:40:11 10° W 17:43:09 40° SSW 17:44:40 23° SE
Cosmos 2237 Rocket 4.4 17:38:31 10° W 17:43:17 27° NNW 17:48:04 10° NNE
STARLINK-67 4.0 17:41:13 10° W 17:43:24 24° SSW 17:44:20 19° SSE
STARLINK-1208 3.6 17:40:35 10° W 17:43:34 41° SSW 17:45:06 23° SE
STARLINK-1229 3.6 17:41:04 10° W 17:44:02 40° SSW 17:45:30 23° SE
STARLINK-1271 3.6 17:41:31 10° W 17:44:30 40° SSW 17:45:58 23° SE
STARLINK-1234 3.8 17:41:55 10° W 17:44:44 35° SSW 17:46:06 22° SSE
STARLINK-1270 3.6 17:42:00 10° W 17:44:57 40° SSW 17:46:24 24° SE
Cosmos 962 Rocket 4.5 17:38:48 10° N 17:45:01 72° ENE 17:51:05 10° SSE
STARLINK-1154 3.6 17:42:25 10° W 17:45:22 40° SSW 17:46:48 24° SE
Cosmos 2058 Rocket 3.3 17:41:17 10° S 17:45:41 53° E 17:50:05 10° NNE
STARLINK-1197 3.6 17:43:19 10° W 17:46:17 40° SSW 17:47:41 24° SE
STARLINK-1189 3.6 17:43:47 10° W 17:46:44 39° SSW 17:48:07 24° SE
STARLINK-1198 3.6 17:44:14 10° W 17:47:11 39° SSW 17:48:33 24° SE
STARLINK-1188 3.6 17:44:40 10° W 17:47:38 39° SSW 17:48:59 25° SE
STARLINK-1209 3.8 17:44:56 10° W 17:47:41 33° SSW 17:48:54 23° SSE
STARLINK-1202 3.8 17:43:39 10° W 17:47:44 58° S 17:50:18 21° ESE
STARLINK-1235 3.8 17:45:19 10° W 17:48:15 36° SSW 17:49:37 23° SSE
SeaSat 1 3.6 17:43:44 10° NNE 17:48:29 47° NW 17:53:12 10° WSW
STARLINK-1187 3.7 17:45:44 10° W 17:48:43 38° SSW 17:50:04 24° SE
Resurs 01 Rocket 1.7 17:44:18 10° SSE 17:48:43 84° WSW 17:53:11 10° NNW
SL-8 Rocket 4.2 17:42:42 10° N 17:48:56 56° ENE 17:54:01 16° SSE
Meteor 1-16 Rocket 4.2 17:43:41 10° SSW 17:49:07 84° WNW 17:54:46 10° NNE
Iridium 4 Rocket 4.0 17:45:28 10° NNE 17:49:17 29° ENE 17:51:06 21° ESE
Nadezhda 1 Rocket 4.0 17:43:00 10° S 17:49:23 79° E 17:55:45 10° NNE
STARLINK-1199 3.6 17:46:37 10° W 17:49:36 39° SSW 17:50:55 25° SE
STARLINK-1191 3.6 17:47:05 10° W 17:50:03 39° SSW 17:51:20 25° SE
Cosmos 1892 3.9 17:46:59 10° N 17:50:21 27° ENE 17:51:53 21° ESE
STARLINK-1210 3.7 17:47:32 10° W 17:50:29 39° SSW 17:51:47 25° SE
STARLINK-1221 3.7 17:47:58 10° W 17:50:57 39° SSW 17:52:13 26° SE
STARLINK-1219 3.7 17:48:25 10° W 17:51:23 38° SSW 17:52:39 26° SSE
STARLINK-1203 3.8 17:47:34 10° W 17:51:43 57° S 17:54:10 23° ESE
STARLINK-1222 3.7 17:48:53 10° W 17:51:51 38° SSW 17:53:05 26° SSE
STARLINK-1211 3.7 17:49:20 10° W 17:52:17 38° SSW 17:53:31 26° SSE
Cosmos 1190 Rocket 4.3 17:47:31 10° S 17:52:31 44° ESE 17:57:33 10° NE
STARLINK-1214 3.7 17:49:47 10° W 17:52:44 38° SSW 17:53:57 26° SSE
STARLINK-1245 3.7 17:50:16 10° W 17:53:12 38° SSW 17:54:22 26° SSE
STARLINK-1238 3.7 17:50:40 10° W 17:53:38 38° SSW 17:54:49 26° SSE
Cosmos 1140 Rocket 3.9 17:49:19 10° S 17:54:08 40° ESE 17:58:58 10° NE
STARLINK-1205 3.7 17:51:37 10° W 17:54:33 37° SSW 17:55:40 27° SSE
STARLINK-1204 3.7 17:52:04 10° W 17:55:00 37° SSW 17:56:06 27° SSE
Spot 2 Rocket 3.5 17:51:21 16° SSE 17:55:24 68° ENE 18:00:30 10° NNW
STARLINK-1246 3.8 17:53:35 10° W 17:57:40 57° S 17:59:52 25° ESE
USA 245 4.5 17:53:16 16° SSE 17:57:53 68° ENE 18:04:16 10° NNW
ATLAS 5 CENTAUR R/B 2.5 17:54:41 10° S 17:58:16 27° ESE 18:02:14 10° ENE
SL-4 R/B 3.0 17:55:47 10° SSW 17:58:05 21° SSE 17:58:05 21° SSE
Cosmos 1726 Rocket 3.6 17:54:48 10° SSW 17:59:14 84° WNW 18:03:43 10° N
Cosmos 2366 rocket 4.2 17:54:26 10° N 18:00:29 54° ENE 18:04:42 20° SE
Cosmos 1340 Rocket 2.7 17:58:24 10° S 18:02:26 68° E 18:06:28 10° NNE
STARLINK-1224 3.8 17:58:33 10° W 18:02:38 56° S 18:04:38 27° ESE
STARLINK-1201 3.8 17:59:48 10° W 18:02:52 37° SSW 18:03:51 29° SSE
In-Cosmos 22 Rocket 4.4 17:58:51 10° N 18:04:39 61° ENE 18:08:33 21° SE
Cosmos 1825 3.9 18:03:22 10° NNE 18:06:07 19° ENE 18:06:54 18° ENE
STARLINK-1225 3.8 18:03:33 10° W 18:07:37 55° S 18:09:26 29° SE
COSMOS 2455 3.1 18:03:14 10° NW 18:09:15 68° SW 18:13:30 20° SSE
Cosmos 468 Rocket 4.2 18:05:34 10° NNW 18:10:44 58° NE 18:13:31 26° SE
Cosmos 614 Rocket 3.9 18:06:01 10° SSW 18:11:14 78° ESE 18:16:28 10° NNE
STARLINK-1230 3.9 18:08:31 10° W 18:12:35 53° SSW 18:14:13 32° SE
CZ-2C R/B 4.3 18:10:10 10° N 18:14:53 62° WNW 18:19:29 10° SSW
STARLINK-1243 3.9 18:13:28 10° W 18:17:31 52° SSW 18:18:58 34° SE
Cosmos 921 Rocket 3.6 18:13:27 10° NNW 18:17:32 52° WSW 18:20:22 19° S
Cosmos 1300 2.7 18:15:55 27° SSE 18:17:48 59° E 18:21:36 10° NNE
IGS 5A 3.4 18:16:50 29° SSE 18:18:53 73° ENE 18:23:04 10° NNW
Cosmos 1812 Rocket 4.1 18:19:37 32° SE 18:20:44 38° E 18:24:46 10° NNE
Cosmos 676 Rocket 4.2 18:16:16 13° S 18:20:48 46° ESE 18:25:49 10° NE
Abrixas rocket 4.0 18:19:11 10° WSW 18:20:45 17° SSW 18:20:45 17° SSW
Cosmos 407 Rocket 3.3 18:17:05 10° SSW 18:22:14 80° ESE 18:27:23 10° NNE
STARLINK-1236 3.9 18:18:28 10° W 18:22:30 51° SSW 18:23:47 36° SE
Cosmos 2228 4.2 18:21:51 10° SW 18:25:59 43° WNW 18:30:10 10° N
CZ-4B DEB 4.3 18:28:40 48° SSE 18:29:29 78° ENE 18:32:53 10° NNW
Cosmos 1818 3.5 18:24:26 10° SW 18:29:54 89° NW 18:35:25 10° NE
ERS-1 Rocket 3.0 18:27:40 30° SE 18:30:08 69° ENE 18:35:10 10° NNW
STARLINK-1269 4.0 18:28:26 10° W 18:32:27 48° SSW 18:33:22 40° SSE
ATLAS CENTAUR R/B 2.2 18:29:55 10° NW 18:33:45 39° NNE 18:35:15 27° ENE
Landsat 7 3.8 18:32:46 27° S 18:35:23 81° WSW 18:40:11 10° NNW
BREEZE M DEB (TANK) 4.2 18:30:34 10° SW 18:35:23 26° S 18:35:23 26° S
SPOT 1/Viking Rocket 3.5 18:33:53 27° SSE 18:36:49 88° WSW 18:42:06 10° NNW
ERBS 2.4 18:33:55 10° WNW 18:37:15 58° SSW 18:37:31 56° S
STARLINK-1200 4.0 18:33:25 10° W 18:37:24 46° SSW 18:38:08 41° SSE
Cosmos 1943 3.9 18:32:38 10° SW 18:38:13 57° NW 18:43:52 10° NNE
Cosmos 2369 4.2 18:33:45 10° NNW 18:39:18 51° NE 18:41:52 29° ESE
Cosmos 220 Rocket 4.1 18:35:09 10° NNW 18:39:28 73° WSW 18:41:05 37° S
SL-08 R/B 4.4 18:34:32 10° N 18:40:40 70° ENE 18:43:45 31° SSE
STARLINK-1192 4.0 18:38:22 10° W 18:42:20 45° SSW 18:42:54 42° S
BREEZE-M DEB (TANK) 3.8 18:40:10 10° WSW 18:41:07 15° SW 18:41:07 15° SW
Cosmos 1821 Rocket 4.4 18:36:20 10° N 18:42:31 50° ENE 18:45:14 32° SE
Cosmos 2208 Rocket 4.3 18:38:05 10° NNW 18:43:12 54° NE 18:45:07 35° ESE
Cosmos 1954 Rocket 3.9 18:40:59 15° SSW 18:45:21 66° ESE 18:50:32 10° NNE
CZ-4C R/B 3.1 18:40:31 10° NW 18:47:01 62° NNE 18:51:57 23° ESE
STARLINK-1244 4.0 18:43:22 10° W 18:47:19 43° SSW 18:47:42 42° S
Cosmos 2344 4.3 18:41:36 10° WNW 18:50:07 69° NNE 18:58:39 20° ESE
SAR-Lupe-2 4.0 18:46:37 10° N 18:50:11 61° WNW 18:52:18 22° SW
Meteor 2-10 Rocket 4.1 18:50:24 35° ESE 18:51:05 36° E 18:55:59 10° NNE
Cosmos 1697 Rocket 3.0 18:45:49 10° NNW 18:51:28 59° NE 18:53:43 35° ESE
STARLINK-1138 4.1 18:48:19 10° W 18:52:15 42° SSW 18:52:27 42° SSW
CZ-2C R/B 3.4 18:49:25 10° N 18:54:26 51° WNW 18:59:26 10° SW
Cosmos 2151 3.0 18:50:49 10° N 18:55:00 61° ENE 18:55:38 54° ESE
Cosmos 1076 Rocket 3.8 18:52:27 10° NNW 18:56:41 62° W 18:58:15 36° SSW
STARLINK-1143 4.2 18:53:17 10° W 18:57:11 40° SSW 18:57:13 40° SSW
SPOT 5 2.5 18:57:33 48° S 18:58:45 85° WSW 19:03:07 10° NNW
Meteor 2-3 Rocket 4.4 18:54:57 10° N 19:00:27 43° ENE 19:02:09 34° ESE
STARLINK-1241 4.3 18:58:17 10° W 19:02:02 39° SSW 19:02:02 39° SSW
Aureole 1 Rocket 4.5 18:57:01 10° SW 19:04:08 61° WNW 19:09:38 10° NNE
SL-16 R/B 3.8 19:00:17 10° NNW 19:05:05 27° NNE 19:08:38 15° ENE
Cosmos 2058 3.6 19:02:48 10° NNW 19:06:48 50° W 19:08:05 35° SSW
STARLINK-1239 4.4 19:03:16 10° W 19:06:49 37° SW 19:06:49 37° SW
Cosmos 1763 Rocket 3.5 19:02:43 10° NNW 19:07:57 71° WSW 19:09:33 44° S
Iridium 2 4.4 19:07:08 32° SW 19:08:34 52° W 19:12:20 10° N
Cosmos 2360 Rocket 4.3 19:06:56 10° NNW 19:11:08 21° NNE 19:15:20 10° ENE
Cosmos 1814 Rocket 4.1 19:05:48 10° NNW 19:11:11 72° ENE 19:12:38 48° SE
USA 32 4.0 19:08:10 10° N 19:13:27 88° W 19:15:06 46° S
Cosmos 2322 Rocket 3.8 19:10:18 10° NNW 19:15:04 27° NNE 19:18:32 15° ENE
BREEZE M DEB (TANK) 4.2 19:10:47 10° SW 19:15:18 44° SE 19:29:37 10° E
Terra 1.8 19:16:09 52° S 19:17:18 80° WSW 19:22:07 10° NNW
Cosmos 1408 2.6 19:14:09 10° NNW 19:17:45 73° W 19:17:45 73° W
USA 234 3.2 19:12:35 10° ENE 19:19:04 60° SSE 19:25:32 10° SW
Cosmos 1980 Rocket 2.5 19:14:10 10° NNW 19:19:42 56° NE 19:21:25 40° ESE
Cosmos-2242 3.1 19:20:13 60° E 19:20:13 60° E 19:24:24 10° NNE
RESURS DK-1 2.2 19:16:11 10° NW 19:20:22 80° SW 19:20:33 78° SSW
Cosmos 540 Rocket 3.4 19:18:20 10° NNW 19:23:34 86° ENE 19:24:35 58° SE
Resurs 01 Rocket 4.3 19:23:38 10° WSW 19:25:57 14° W 19:28:16 10° NW
Cosmos 1892 3.8 19:22:32 10° NNW 19:26:10 38° W 19:26:53 34° WSW
Cosmos 1656 3.9 19:22:00 10° NW 19:27:38 61° WSW 19:29:11 45° S
Cosmos 1455 2.5 19:28:47 59° NE 19:28:47 59° NE 19:32:01 10° NNE
Iridium 4 Rocket 4.2 19:25:24 10° NNW 19:29:23 37° W 19:30:54 27° SW
Okean 3 Rocket 3.6 19:25:56 10° NNW 19:30:21 73° W 19:30:51 65° SSW
Cosmos 2360 4.2 19:27:27 10° NNW 19:33:11 79° NE 19:34:31 54° SE
Cosmos 1850 Rocket 3.8 19:32:51 62° SSE 19:33:28 69° ESE 19:38:39 10° NNE
ALOS 2 3.9 19:36:21 28° ENE 19:36:33 28° ENE 19:40:20 10° N
Cosmos 1825 2.7 19:38:15 10° NNW 19:41:43 56° WNW 19:41:43 56° WNW
ATLAS 5 CENTAUR R/B 1.8 19:38:01 10° WSW 19:42:25 75° NW 19:47:31 10° NE
Cosmos 1766 Rocket 3.7 19:38:02 10° NNW 19:42:31 67° W 19:42:50 64° SW
Cosmos 2278 3.6 19:36:51 10° NNW 19:42:34 85° NE 19:43:39 60° SE
Cosmos 841 Rocket 3.6 19:38:02 10° NNW 19:43:18 66° WSW 19:44:08 56° SSW
Spot 4 3.9 19:46:56 61° E 19:47:12 62° ENE 19:51:58 10° N
Cosmos 2084 4.0 19:43:44 10° NW 19:48:08 53° NNE 19:48:40 50° NE
Cosmos 1570 Rocket 4.5 19:43:16 10° NW 19:48:29 52° WSW 19:49:25 46° SW
Cosmos 2082 Rocket 3.4 19:51:40 26° E 19:51:40 26° E 19:55:06 10° NE
Mayak -0.8 19:50:40 10° NNE 19:54:00 53° NE 19:54:00 53° NE
Cosmos 1500 Rocket 3.9 19:50:38 10° N 19:54:30 55° NE 19:54:30 55° NE
ASTEX 1 3.4 19:59:42 68° SW 20:00:10 74° W 20:05:10 10° N
Nadezhda 3 Rocket 4.0 19:59:07 48° SSW 20:01:04 84° WNW 20:07:23 10° N
Cosmos 1535 Rocket 4.4 19:56:49 10° NNW 20:02:59 85° W 20:04:17 59° S
COSMOS 2406 3.1 20:03:31 69° SSE 20:04:03 76° ESE 20:09:48 10° NE
Cosmos 1833 Rocket 3.0 20:06:11 50° E 20:06:11 50° E 20:11:02 10° NE
Cosmos 1356 Rocket 4.0 20:07:12 52° W 20:07:25 52° WNW 20:11:36 10° N
Cosmos 2219 Rocket 4.4 20:06:52 10° NNW 20:11:06 21° NNE 20:15:20 10° ENE
NOSS 2-1 (C) 4.5 20:08:12 10° NW 20:12:32 54° NNE 20:14:05 40° E
ATLAS CENTAUR R/B 2.6 20:08:57 10° NW 20:11:25 33° WNW 20:11:25 33° WNW
NOSS 2-1 (D) 4.4 20:12:25 10° NW 20:16:48 56° NNE 20:18:12 43° E
Thor Agena Rocket 3.4 20:16:39 10° NNE 20:21:44 85° ESE 20:21:44 85° ESE
Cosmos 1727 Rocket 4.4 20:21:58 44° E 20:22:23 45° E 20:28:21 10° NNE
Cosmos 2369 4.3 20:18:09 10° NW 20:23:27 43° WSW 20:23:48 42° WSW
Cosmos 1743 Rocket 3.9 20:20:45 10° NNW 20:24:43 65° NW 20:24:43 65° NW
Cosmos 1408 Rocket 4.4 20:21:27 10° NNW 20:25:29 42° W 20:25:29 42° W
Meteor 2-10 Rocket 4.4 20:31:29 36° WSW 20:33:04 46° WNW 20:38:18 10° N
Cosmos 2100 Rocket 4.2 20:28:48 10° N 20:34:55 56° ENE 20:35:49 51° ESE
Cosmos 1697 Rocket 3.6 20:30:07 10° NW 20:35:14 36° WSW 20:35:27 36° WSW
CZ-4C R/B 2.9 20:29:03 10° NW 20:35:51 62° SW 20:37:07 55° S
Cosmos 1934 Rocket 4.4 20:30:31 10° NNW 20:36:37 53° W 20:37:51 46° SW
Cosmos 1633 4.3 20:38:36 10° NNW 20:40:36 31° NNW 20:40:36 31° NNW
Meteor 2-2 Rocket 4.2 20:43:07 67° E 20:43:07 67° E 20:48:42 10° NNE
Meteor 2-3 Rocket 4.4 20:38:18 10° NNW 20:43:43 43° W 20:44:27 41° WSW
Cosmos 1605 Rocket 4.0 20:41:03 10° NNW 20:47:07 64° W 20:47:54 58° SW
Cosmos 2173 Rocket 4.0 20:41:27 10° N 20:47:30 62° ENE 20:48:12 58° ESE
Helios 1A 3.7 20:50:14 52° N 20:50:14 52° N 20:53:30 10° NNW
Cosmos 1340 4.1 20:45:35 10° NNW 20:47:58 37° N 20:47:58 37° N
SL-16 R/B 2.1 20:44:23 10° NNW 20:50:07 76° NE 20:50:30 73° E
Terra 4.1 20:55:01 14° W 20:55:51 15° W 20:58:30 10° NW
Cosmos 2221 3.2 20:57:01 54° NNW 20:57:01 54° NNW 21:00:34 10° N
Cosmos 2360 Rocket 2.9 20:51:02 10° NNW 20:56:31 48° NE 20:57:49 41° E
Cosmos 2322 Rocket 2.1 20:54:20 10° NNW 21:00:03 76° NE 21:00:20 74° E
Cosmos 1842 Rocket 4.3 21:00:58 48° NW 21:00:58 48° NW 21:04:37 10° N
Cosmos 1666 Rocket 4.3 20:56:25 10° N 20:59:47 50° NNE 20:59:47 50° NNE
USA 234 3.2 20:55:47 10° ENE 21:02:22 85° NNW 21:08:56 10° W
Cosmos 1980 Rocket 3.0 20:58:26 10° NW 21:03:10 37° W 21:03:10 37° W
Nimbus 7 Rocket 4.2 20:58:23 10° NNE 21:04:19 84° ESE 21:04:39 79° SSE
Cosmos 2333 Rocket 3.7 20:59:21 10° NNW 21:04:25 32° NE 21:07:58 17° E
Cosmos 2344 4.4 20:55:56 10° NW 21:04:59 60° SW 21:08:39 44° S
NOSS 2-1 (E) 4.1 21:00:37 10° NW 21:05:22 82° NE 21:05:34 80° ENE
Cosmos 1538 Rocket 4.4 21:07:22 10° NNW 21:12:37 57° NE 21:12:57 55° ENE
ALOS 2 3.6 21:13:44 40° WNW 21:13:44 40° WNW 21:17:01 10° NNW
Cosmos 1315 Rocket 4.4 21:15:07 30° NE 21:15:07 30° NE 21:17:33 10° NNE
SME Rocket 4.3 21:09:22 10° NNE 21:12:40 37° NE 21:12:40 37° NE
Cosmos 2237 Rocket 4.4 21:11:05 10° NNW 21:15:32 23° NNE 21:19:57 10° ENE
Sich 1 3.9 21:13:50 10° NNW 21:17:13 48° NW 21:17:13 48° NW
Cosmos 1486 Rocket 4.0 21:25:49 78° N 21:25:49 78° N 21:30:50 10° NNE
Cosmos 773 Rocket 4.0 21:22:23 10° NNW 21:27:09 76° NNW 21:27:09 76° NNW
Helios 1B rocket 4.0 21:23:46 10° NNE 21:26:14 30° NE 21:26:14 30° NE
ATLAS 5 CENTAUR R/B 3.3 21:23:22 10° WNW 21:27:44 37° N 21:32:47 10° ENE
Mayak 0.9 21:26:58 10° N 21:30:00 20° WNW 21:30:35 19° WNW
Cosmos 2061 Rocket 3.8 21:26:21 10° N 21:32:38 86° E 21:33:12 75° SSE
Cosmos 2082 Rocket 2.3 21:33:30 66° W 21:33:59 70° NW 21:39:41 10° NNE
Cosmos 1346 Rocket 4.5 21:34:42 10° NNW 21:37:00 30° NW 21:37:00 30° NW
Cosmos 1470 Rocket 4.3 21:40:42 10° NNW 21:44:05 52° N 21:44:05 52° N
Cosmos 968 Rocket 3.5 21:47:07 77° NNW 21:47:07 77° NNW 21:52:11 10° NNE
SL-16 R/B 3.5 21:44:13 27° ESE 21:47:01 41° ENE 21:52:48 10° N
Cosmos 1833 Rocket 3.6 21:47:49 33° W 21:49:40 44° NW 21:55:05 10° NNE
Cosmos 1633 Rocket 4.1 21:48:19 10° NNW 21:51:27 39° NW 21:51:27 39° NW
Cosmos 2219 Rocket 2.9 21:50:54 10° NNW 21:56:23 50° NE 21:58:30 34° E
Cosmos 2237 4.1 21:52:27 10° NW 21:58:00 78° W 21:58:00 78° W
MOS 1-B Rocket 4.1 21:55:09 10° NNE 22:01:06 77° WNW 22:02:07 63° SW
Cosmos 44 3.9 22:03:27 45° NE 22:03:27 45° NE 22:06:33 10° NE
Cosmos 1459 Rocket 4.4 21:56:41 10° NNW 22:02:47 49° W 22:03:14 48° WSW
Cosmos 1151 Rocket 3.7 22:05:38 53° NNE 22:05:38 53° NNE 22:09:00 10° NNE
Cosmos 1607 3.8 22:04:15 72° SW 22:04:58 87° NW 22:11:17 10° NE
PSLV R/B 4.2 22:01:44 10° NNE 22:05:22 55° NE 22:05:22 55° NE
Cosmos 839 Rocket 4.4 22:06:06 49° SE 22:06:19 49° ESE 22:12:58 10° NE
Cosmos 1864 Rocket 4.4 22:01:30 10° NNW 22:07:50 71° W 22:08:22 67° SW
COSMOS 2428 3.2 22:03:01 10° NNW 22:08:40 56° NE 22:10:48 36° ESE
Cosmos 2322 3.7 22:03:45 10° NNW 22:09:31 79° NE 22:10:11 68° ESE
Cosmos 2233 Rocket 3.9 22:03:55 10° N 22:10:17 86° E 22:11:06 69° SSE
Cosmos 1802 Rocket 4.3 22:06:40 10° NNW 22:12:38 49° W 22:12:57 48° W
Cosmos 2333 4.1 22:08:15 10° NNW 22:13:54 79° NE 22:14:29 70° ESE
Cosmos 1725 Rocket 4.0 22:08:49 10° NNW 22:15:05 65° W 22:15:34 62° WSW
Meteor 1-20 Rocket 4.2 22:10:39 10° NNW 22:16:27 72° W 22:16:32 72° WSW
Cosmos 2016 Rocket 4.2 22:10:40 10° NNW 22:16:51 54° W 22:17:17 53° WSW
Cosmos 1354 Rocket 4.1 22:16:56 67° WNW 22:17:03 67° WNW 22:22:20 10° NNE
BREEZE-M DEB (TANK) 4.0 22:05:38 10° W 22:21:42 65° SSW 22:26:27 10° ESE
Cosmos 1869 Rocket 4.0 22:17:36 10° N 22:21:35 58° NE 22:21:35 58° NE
CZ-4C R/B 4.4 22:18:27 10° WNW 22:22:18 20° W 22:22:18 20° W
SL-19 R/B 4.3 22:27:47 66° SE 22:28:39 84° ENE 22:34:18 10° NNW
Cosmos 2123 Rocket 3.8 22:28:44 67° SW 22:29:31 76° WNW 22:35:44 10° N
Cosmos 1933 4.3 22:32:59 45° NNW 22:32:59 45° NNW 22:35:57 10° N
SL-16 R/B 3.7 22:29:05 10° NW 22:32:20 24° W 22:32:20 24° W
Cosmos 923 Rocket 3.9 22:28:54 10° NNW 22:33:55 78° WNW 22:33:55 78° WNW
SL-16 R/B 4.2 22:30:17 10° NNW 22:35:04 27° NNE 22:39:51 10° E
Cosmos 1464 Rocket 4.3 22:29:09 10° N 22:35:14 59° ENE 22:37:17 40° SE
Cosmos 1515 Rocket 4.0 22:37:54 59° NNW 22:37:54 59° NNW 22:41:35 10° N
ADEOS II 4.3 22:34:00 10° NE 22:37:19 17° E 22:39:49 12° ESE
Lacrosse 5 rocket 3.8 22:41:32 12° E 22:41:32 12° E 22:42:04 10° E
Cosmos 2360 Rocket 2.8 22:35:12 10° NW 22:39:34 41° W 22:39:34 41° W
Cosmos 2322 Rocket 3.7 22:38:59 10° NW 22:42:08 23° W 22:42:08 23° W
COSMOS 2487 4.2 22:46:04 31° NE 22:46:04 31° NE 22:48:04 10° NNE
USA 234 3.2 22:38:50 10° E 22:45:23 84° N 22:51:58 10° WNW
Resurs 1-4 Rocket 2.9 22:40:28 10° NNE 22:45:28 40° E 22:46:24 37° ESE
Cosmos 1447 Rocket 4.5 22:45:25 59° S 22:46:42 81° E 22:53:05 10° NNE
MOZ.5/SAFIR/RUBIN 5/SL-8 3.7 22:48:14 85° NW 22:48:14 85° NW 22:52:55 10° NNW
CZ-4 R/B 4.4 22:44:32 10° N 22:49:14 48° WNW 22:49:27 48° WNW
Cosmos 2333 Rocket 2.0 22:43:37 10° NW 22:49:19 82° WSW 22:49:56 71° S
Cosmos 1833 4.4 22:50:09 56° SE 22:50:46 59° ESE 22:56:25 10° NE
Cosmos 44 Rocket 3.6 22:51:23 55° E 22:51:23 55° E 22:55:31 10° NE
Cosmos 405 Rocket 4.0 22:48:04 10° N 22:51:30 34° ENE 22:51:36 33° ENE
Meteor 2-20 Rocket 4.4 22:50:46 62° S 22:51:54 88° ESE 22:58:08 10° NNE
Cosmos 1680 Rocket 3.4 22:46:46 10° NNW 22:51:58 77° WSW 22:51:58 77° WSW
NPP 4.4 22:52:27 10° NNE 22:57:37 44° E 22:58:53 38° SE
Cosmos 1606 4.2 22:59:41 29° NW 22:59:41 29° NW 23:02:23 10° N
Cosmos 2237 Rocket 2.8 22:55:12 10° NNW 23:00:49 56° NE 23:06:24 10° SE
Genesis I 4.1 23:02:21 46° ENE 23:02:21 46° ENE 23:05:15 10° NE
Cosmos 724 4.2 23:01:32 62° SW 23:02:33 85° NW 23:08:24 10° NE
Helios 1B rocket 3.8 22:59:15 10° N 23:02:34 30° NW 23:02:34 30° NW
CZ-2D R/B 2.6 22:59:14 10° NNE 23:04:37 54° E 23:05:54 44° SE
Cosmos 2228 Rocket 3.3 23:05:37 66° WNW 23:05:37 66° WNW 23:10:03 10° N
Cosmos 1500 4.0 23:03:01 10° NNW 23:05:49 48° N 23:05:49 48° N
NOSS 0 Rocket 3.9 23:00:45 10° NW 23:06:58 82° NE 23:11:17 21° SE
Cosmos 1513 Rocket 4.4 23:01:28 10° NNW 23:07:54 89° WSW 23:09:49 49° S
Meteor 1-11 Rocket 3.9 23:02:25 10° NNW 23:08:23 78° ENE 23:10:33 42° SSE
SJ 16-02 2.2 23:08:32 39° ESE 23:08:42 39° ESE 23:12:48 10° NE
Cosmos 1932 4.5 23:11:31 54° SSW 23:13:06 77° SE 23:19:42 10° NE
ATLAS 5 CENTAUR R/B 3.3 23:08:40 10° NW 23:13:26 41° NNE 23:18:59 10° E
Cosmos 1782 3.4 23:14:23 49° NW 23:14:23 49° NW 23:17:40 10° N
Meteor 1-5 Rocket 4.1 23:09:40 10° NNW 23:15:28 77° W 23:16:31 59° SSW
ARIANE 5 R/B 4.4 23:13:15 10° NE 23:17:23 23° E 23:20:38 14° SE
Cosmos 2082 Rocket 4.0 23:15:17 13° WNW 23:19:05 25° NNW 23:23:48 10° NNE
Cosmos 1184 Rocket 4.0 23:16:00 10° N 23:18:40 42° NE 23:18:40 42° NE
AQUA 4.3 23:17:10 10° NNE 23:21:52 53° E 23:22:52 44° SE
Cosmos 2034 Rocket 4.0 23:17:31 10° NNW 23:23:57 88° E 23:26:44 37° SSE
UNK 3.9 23:24:17 55° W 23:24:17 55° W 23:28:37 10° NNW
ERS-2 2.4 23:26:23 64° ENE 23:26:23 64° ENE 23:29:57 10° NNW
Cosmos 2285 Rocket 4.2 23:24:25 43° S 23:26:30 67° ESE 23:32:54 10° NNE
Meteor 2-6 Rocket 4.0 23:25:30 57° S 23:26:40 87° ESE 23:32:06 10° NNE
Cosmos 2297 Rocket 4.3 23:24:04 12° SE 23:27:24 19° E 23:31:12 10° ENE
H-2A R/B 3.2 23:25:18 20° SE 23:27:48 41° ENE 23:31:42 10° N
Cosmos 1733 Rocket 2.9 23:24:00 10° NNW 23:28:27 90° SE 23:28:46 77° SSE
SL-16 R/B 2.7 23:29:18 47° SW 23:30:32 54° WSW 23:36:40 10° NNW
Cosmos 1743 4.3 23:30:36 10° N 23:34:11 34° ENE 23:36:31 18° SE
Cosmos 2112 Rocket 4.4 23:30:35 10° NW 23:35:07 43° W 23:35:07 43° W
Cosmos 1666 2.7 23:32:03 10° N 23:35:38 77° NNE 23:35:38 77° NNE
Cosmos 2219 Rocket 2.5 23:35:04 10° NW 23:40:11 43° WSW 23:40:11 43° WSW
Cosmos 1818 4.4 23:38:11 10° NW 23:43:32 51° NNE 23:48:51 10° ESE
CSL-04 DEB 4.2 23:45:48 76° WSW 23:45:48 76° WSW 23:49:45 10° NNW
Cosmos 158 Rocket 4.5 23:40:54 10° NW 23:45:31 40° W 23:45:31 40° W
CBERS-1 4.2 23:44:18 10° NNE 23:49:26 68° ESE 23:51:22 38° S
USA 267 4.5 23:44:41 10° ENE 23:50:10 28° SE 23:53:00 21° S
COSMOS 2428 3.2 23:47:34 10° NW 23:52:47 38° WSW 23:52:47 38° WSW
Cosmos 2227 Rocket 3.9 23:49:34 13° SSE 23:53:21 25° ESE 23:57:51 10° NE
Cosmos 1937 Rocket 3.8 23:51:51 36° S 23:53:46 58° ESE 23:58:52 10° NNE
CZ-4B R/B 4.2 23:53:47 10° ESE 23:56:24 20° ENE 23:59:01 10° NNE
